ARG1009 SACO-SAVT

Flight info

Callsign ARG1009
Flight time 0h 28m
Altitude 34000
Route SIMES1G SIMES UT700 POTRO DCT ORAMU ORAMU3Q
Aircraft A321/M-SDE3FGHIRWY/LB1

Departure

Time 2026-05-09 20:22
Airport Ingeniero Aeronáutico Ambrosio L.V. Taravella International Airport (SACO)

Arrival

Time 2026-05-09 20:51
Airport Almirante Marco Andres Zar Airport (SAVT)
Time Latitude Longitude Altitude Speed Heading
2026-05-09 20:11 -31.31487 -64.21180 1613 ft 0 kts 262°
2026-05-09 20:14 -31.31485 -64.21168 1613 ft 3 kts 258°
2026-05-09 20:14 -31.31482 -64.21145 1619 ft 3 kts 259°
2026-05-09 20:15 -31.31478 -64.21122 1619 ft 3 kts 258°
2026-05-09 20:15 -31.31473 -64.21099 1620 ft 3 kts 245°
2026-05-09 20:15 -31.31464 -64.21082 1617 ft 3 kts 201°
2026-05-09 20:15 -31.31454 -64.21080 1621 ft 1 kts 181°
2026-05-09 20:16 -31.31452 -64.21080 1621 ft 0 kts 181°
2026-05-09 20:17 -31.31455 -64.21079 1621 ft 2 kts 170°
2026-05-09 20:18 -31.31469 -64.21048 1616 ft 7 kts 90°
2026-05-09 20:18 -31.31464 -64.20957 1613 ft 15 kts 88°
2026-05-09 20:18 -31.31423 -64.20838 1614 ft 18 kts 15°
2026-05-09 20:18 -31.31283 -64.20832 1619 ft 23 kts 360°
2026-05-09 20:19 -31.31104 -64.20833 1616 ft 28 kts 359°
2026-05-09 20:19 -31.30889 -64.20837 1616 ft 33 kts 359°
2026-05-09 20:19 -31.30661 -64.20841 1613 ft 33 kts 359°
2026-05-09 20:19 -31.30432 -64.20844 1619 ft 33 kts 359°
2026-05-09 20:20 -31.30205 -64.20847 1616 ft 32 kts 359°
2026-05-09 20:20 -31.29982 -64.20851 1617 ft 32 kts 359°
2026-05-09 20:20 -31.29758 -64.20855 1619 ft 32 kts 359°
2026-05-09 20:20 -31.29614 -64.20894 1614 ft 11 kts
2026-05-09 20:21 -31.29609 -64.20867 1614 ft 4 kts 150°
2026-05-09 20:21 -31.29664 -64.20857 1617 ft 22 kts 179°
2026-05-09 20:21 -31.30063 -64.20849 1617 ft 91 kts 179°
2026-05-09 20:21 -31.30904 -64.20833 1617 ft 148 kts 178°
2026-05-09 20:22 -31.31997 -64.20807 2125 ft 152 kts 176°
2026-05-09 20:22 -31.33033 -64.20535 2786 ft 157 kts 149°
2026-05-09 20:22 -31.33938 -64.19728 3126 ft 173 kts 139°
2026-05-09 20:22 -31.34886 -64.18722 3298 ft 195 kts 137°
2026-05-09 20:23 -31.35941 -64.17597 3455 ft 216 kts 138°
2026-05-09 20:23 -31.37089 -64.16397 3970 ft 223 kts 139°
2026-05-09 20:23 -31.38260 -64.15195 4712 ft 225 kts 140°
2026-05-09 20:23 -31.39458 -64.13996 5407 ft 229 kts 140°
2026-05-09 20:24 -31.40681 -64.12788 6084 ft 233 kts 140°
2026-05-09 20:24 -31.41936 -64.11550 6734 ft 239 kts 142°
2026-05-09 20:24 -31.43217 -64.10293 7380 ft 241 kts 142°
2026-05-09 20:24 -31.44507 -64.09031 8125 ft 241 kts 143°
2026-05-09 20:25 -31.45762 -64.07740 8902 ft 241 kts 136°
2026-05-09 20:25 -31.46831 -64.06135 9285 ft 261 kts 130°
2026-05-09 20:25 -31.47920 -64.04355 9762 ft 273 kts 130°
2026-05-09 20:25 -31.49022 -64.02524 10431 ft 276 kts 130°
2026-05-09 20:26 -31.50163 -64.00628 10715 ft 296 kts 130°
2026-05-09 20:26 -31.50970 -63.99293 10796 ft 310 kts 130°
2026-05-09 20:26 -31.52263 -63.97159 10920 ft 331 kts 130°
2026-05-09 20:26 -31.53836 -63.95125 11043 ft 344 kts 144°
2026-05-09 20:27 -31.55850 -63.93536 11424 ft 352 kts 150°
2026-05-09 20:27 -31.58605 -63.91480 12194 ft 357 kts 150°
2026-05-09 20:27 -31.60030 -63.90419 12606 ft 359 kts 150°
2026-05-09 20:27 -31.62834 -63.88327 13416 ft 363 kts 150°
2026-05-09 20:28 -31.64275 -63.87249 13831 ft 365 kts 150°
2026-05-09 20:28 -31.66482 -63.85754 14376 ft 367 kts 159°
2026-05-09 20:28 -31.68929 -63.85030 14849 ft 369 kts 176°
2026-05-09 20:29 -31.74075 -63.85407 15970 ft 374 kts 185°
2026-05-09 20:29 -31.76672 -63.85696 16539 ft 376 kts 186°
2026-05-09 20:29 -31.79287 -63.86028 17108 ft 379 kts 186°
2026-05-09 20:29 -31.81921 -63.86326 17662 ft 381 kts 186°
2026-05-09 20:30 -31.84566 -63.86599 18194 ft 384 kts 186°
2026-05-09 20:30 -31.87240 -63.86864 18701 ft 386 kts 186°
2026-05-09 20:30 -31.89927 -63.87128 19138 ft 389 kts 186°
2026-05-09 20:30 -31.92632 -63.87396 19564 ft 392 kts 185°
2026-05-09 20:31 -31.95356 -63.87669 19977 ft 394 kts 186°
2026-05-09 20:31 -31.98101 -63.87949 20397 ft 397 kts 186°
2026-05-09 20:31 -32.00861 -63.88236 20825 ft 399 kts 186°
2026-05-09 20:31 -32.03635 -63.88526 21240 ft 402 kts 186°
2026-05-09 20:32 -32.06433 -63.88819 21654 ft 404 kts 186°
2026-05-09 20:32 -32.09248 -63.89113 22042 ft 407 kts 186°
2026-05-09 20:32 -32.12080 -63.89411 22295 ft 409 kts 186°
2026-05-09 20:32 -32.14909 -63.89708 22343 ft 407 kts 186°
2026-05-09 20:33 -42.29497 -65.07431 22230 ft 415 kts 142°
2026-05-09 20:33 -42.31592 -65.04748 21814 ft 414 kts 144°
2026-05-09 20:33 -42.33777 -65.02265 20231 ft 406 kts 149°
2026-05-09 20:33 -42.35993 -65.00076 19426 ft 381 kts 151°
2026-05-09 20:34 -42.38080 -64.98106 19144 ft 351 kts 152°
2026-05-09 20:34 -42.40022 -64.96243 18491 ft 336 kts 151°
2026-05-09 20:34 -42.41863 -64.94418 17509 ft 329 kts 150°
2026-05-09 20:34 -42.43668 -64.92566 16511 ft 324 kts 149°
2026-05-09 20:35 -42.45439 -64.90699 15522 ft 320 kts 149°
2026-05-09 20:35 -42.47175 -64.88841 14568 ft 316 kts 148°
2026-05-09 20:35 -42.48892 -64.86994 13585 ft 313 kts 148°
2026-05-09 20:35 -42.50626 -64.85268 12559 ft 304 kts 156°
2026-05-09 20:36 -42.52479 -64.83973 11716 ft 295 kts 159°
2026-05-09 20:36 -42.54273 -64.82746 11460 ft 285 kts 159°
2026-05-09 20:36 -42.56027 -64.81544 11207 ft 281 kts 159°
2026-05-09 20:36 -42.57771 -64.80352 10972 ft 280 kts 159°
2026-05-09 20:37 -42.59507 -64.79168 10736 ft 279 kts 159°
2026-05-09 20:37 -42.61240 -64.77986 10488 ft 279 kts 159°
2026-05-09 20:37 -42.62944 -64.76819 10248 ft 275 kts 159°
2026-05-09 20:37 -42.64631 -64.75657 10078 ft 268 kts 159°
2026-05-09 20:38 -42.66301 -64.74508 9956 ft 269 kts 159°
2026-05-09 20:38 -42.68000 -64.73515 9790 ft 261 kts 172°
2026-05-09 20:38 -42.69773 -64.73391 9666 ft 253 kts 193°
2026-05-09 20:38 -42.71446 -64.74074 9538 ft 251 kts 201°
2026-05-09 20:39 -42.73087 -64.74864 9419 ft 250 kts 201°
2026-05-09 20:39 -42.74726 -64.75657 9284 ft 249 kts 201°
2026-05-09 20:39 -42.76349 -64.76445 9145 ft 249 kts 201°
2026-05-09 20:39 -42.77982 -64.77238 9031 ft 249 kts 201°
2026-05-09 20:40 -42.79611 -64.78027 8889 ft 248 kts 201°
2026-05-09 20:40 -42.81236 -64.78813 8759 ft 248 kts 201°
2026-05-09 20:40 -42.82861 -64.79598 8627 ft 248 kts 201°
2026-05-09 20:40 -42.84485 -64.80384 8498 ft 247 kts 201°
2026-05-09 20:41 -42.86104 -64.81170 8370 ft 247 kts 201°
2026-05-09 20:41 -42.87725 -64.81955 8244 ft 247 kts 201°
2026-05-09 20:41 -42.89336 -64.82738 8115 ft 245 kts 201°
2026-05-09 20:41 -42.90942 -64.83520 7988 ft 245 kts 201°
2026-05-09 20:42 -42.92535 -64.84297 7849 ft 241 kts 201°
2026-05-09 20:42 -42.94098 -64.85059 7591 ft 236 kts 201°
2026-05-09 20:42 -42.95632 -64.85809 7311 ft 232 kts 201°
2026-05-09 20:42 -42.97147 -64.86549 7027 ft 229 kts 201°
2026-05-09 20:43 -42.98641 -64.87281 6752 ft 227 kts 201°
2026-05-09 20:43 -43.00122 -64.88004 6466 ft 225 kts 201°
2026-05-09 20:43 -43.01587 -64.88719 6184 ft 222 kts 201°
2026-05-09 20:43 -43.03035 -64.89424 5907 ft 219 kts 201°
2026-05-09 20:44 -43.04439 -64.90108 5635 ft 216 kts 201°
2026-05-09 20:44 -43.05851 -64.90796 5382 ft 215 kts 201°
2026-05-09 20:44 -43.07246 -64.91477 5161 ft 209 kts 200°
2026-05-09 20:44 -43.08598 -64.92141 4955 ft 203 kts 201°
2026-05-09 20:45 -43.09935 -64.92798 4817 ft 205 kts 202°
2026-05-09 20:45 -43.11253 -64.93820 4699 ft 230 kts 221°
2026-05-09 20:45 -43.12223 -64.95577 4537 ft 233 kts 243°
2026-05-09 20:45 -43.12802 -64.97603 4435 ft 224 kts 246°
2026-05-09 20:46 -43.13351 -64.99565 4207 ft 218 kts 245°
2026-05-09 20:46 -43.13893 -65.01492 3947 ft 215 kts 245°
2026-05-09 20:46 -43.14426 -65.03386 3669 ft 211 kts 246°
2026-05-09 20:46 -43.14945 -65.05231 3363 ft 205 kts 246°
2026-05-09 20:47 -43.15451 -65.07031 3077 ft 199 kts 247°
2026-05-09 20:47 -43.15939 -65.08773 2812 ft 193 kts 247°
2026-05-09 20:47 -43.16420 -65.10476 2550 ft 191 kts 247°
2026-05-09 20:47 -43.16889 -65.12150 2305 ft 182 kts 248°
2026-05-09 20:48 -43.17316 -65.13679 2079 ft 160 kts 248°
2026-05-09 20:48 -43.17687 -65.15008 1842 ft 142 kts 247°
2026-05-09 20:48 -43.18032 -65.16239 1648 ft 136 kts 247°
2026-05-09 20:48 -43.18363 -65.17423 1458 ft 134 kts 247°
2026-05-09 20:49 -43.18694 -65.18607 1278 ft 133 kts 248°
2026-05-09 20:49 -43.19026 -65.19793 1081 ft 133 kts 248°
2026-05-09 20:49 -43.19356 -65.20979 883 ft 134 kts 249°
2026-05-09 20:49 -43.19688 -65.22160 700 ft 132 kts 249°
2026-05-09 20:50 -43.20015 -65.23347 498 ft 131 kts 249°
2026-05-09 20:50 -43.20342 -65.24495 327 ft 130 kts 249°
2026-05-09 20:50 -43.20664 -65.25643 155 ft 123 kts 248°
2026-05-09 20:50 -43.20936 -65.26626 116 ft 92 kts 249°
2026-05-09 20:51 -43.21062 -65.27083 117 ft 26 kts 249°
2026-05-09 20:51 -43.21125 -65.27313 116 ft 25 kts 250°
2026-05-09 20:51 -43.21174 -65.27536 118 ft 24 kts 265°
2026-05-09 20:51 -43.21161 -65.27755 118 ft 18 kts 278°
2026-05-09 20:52 -43.21142 -65.27928 120 ft 16 kts 278°
2026-05-09 20:52 -43.21128 -65.28035 120 ft 14 kts 282°
2026-05-09 20:52 -43.21147 -65.28172 117 ft 16 kts 249°
2026-05-09 20:52 -43.21148 -65.28307 115 ft 15 kts 323°
2026-05-09 20:53 -43.21073 -65.28318 117 ft 8 kts 28°
2026-05-09 20:53 -43.21032 -65.28306 118 ft 6 kts 352°
2026-05-09 20:53 -43.21022 -65.28312 117 ft 0 kts 339°